"datetime","# probes","# resolvers","can_ipv6","can_ipv6_prbs","can_tcp","can_tcp_prbs","can_tcp6","can_tcp6_prbs","does_ecs","does_ecs_prbs","does_flagday","does_flagday_prbs","does_rov4","does_rov4_prbs","does_rov6","does_rov6_prbs","does_qnamemin","doesnt_qnamemin","does_qnamemin_prbs","doesnt_qnamemin_prbs","does_nxdomain","doesnt_nxdomain","does_nxdomain_prbs","doesnt_nxdomain_prbs","has_ta_19036","hasnt_ta_19036","has_ta_19036_prbs","hasnt_ta_19036_prbs","has_ta_20326","hasnt_ta_20326","has_ta_20326_prbs","hasnt_ta_20326_prbs","can_rsamd5","cannot_rsamd5","broken_rsamd5","can_rsamd5_prbs","cannot_rsamd5_prbs","broken_rsamd5_prbs","can_dsa","cannot_dsa","broken_dsa","can_dsa_prbs","cannot_dsa_prbs","broken_dsa_prbs","can_rsasha1","cannot_rsasha1","broken_rsasha1","can_rsasha1_prbs","cannot_rsasha1_prbs","broken_rsasha1_prbs","can_dsansec3","cannot_dsansec3","broken_dsansec3","can_dsansec3_prbs","cannot_dsansec3_prbs","broken_dsansec3_prbs","can_rsansec3","cannot_rsansec3","broken_rsansec3","can_rsansec3_prbs","cannot_rsansec3_prbs","broken_rsansec3_prbs","can_rsasha256","cannot_rsasha256","broken_rsasha256","can_rsasha256_prbs","cannot_rsasha256_prbs","broken_rsasha256_prbs","can_rsasha512","cannot_rsasha512","broken_rsasha512","can_rsasha512_prbs","cannot_rsasha512_prbs","broken_rsasha512_prbs","can_eccgost","cannot_eccgost","broken_eccgost","can_eccgost_prbs","cannot_eccgost_prbs","broken_eccgost_prbs","can_ecdsa256","cannot_ecdsa256","broken_ecdsa256","can_ecdsa256_prbs","cannot_ecdsa256_prbs","broken_ecdsa256_prbs","can_ecdsa384","cannot_ecdsa384","broken_ecdsa384","can_ecdsa384_prbs","cannot_ecdsa384_prbs","broken_ecdsa384_prbs","can_ed25519","cannot_ed25519","broken_ed25519","can_ed25519_prbs","cannot_ed25519_prbs","broken_ed25519_prbs","can_ed448","cannot_ed448","broken_ed448","can_ed448_prbs","cannot_ed448_prbs","broken_ed448_prbs","can_gost","cannot_gost","broken_gost","can_gost_prbs","cannot_gost_prbs","broken_gost_prbs","can_sha384","cannot_sha384","broken_sha384","can_sha384_prbs","cannot_sha384_prbs","broken_sha384_prbs","is_internal","is_forwarding","is_external","is_internal_prbs","is_forwarding_prbs","is_external_prbs"
2017-06-20T23:59:59Z,154,218,198,138,218,154,195,136,87,69,0,0,0,0,0,0,2,215,1,152,0,216,0,153,0,0,0,0,0,0,0,0,88,41,89,61,49,69,130,88,0,89,73,1,218,0,0,154,20,1,129,88,0,88,74,1,216,1,0,152,21,1,216,1,0,152,21,1,215,1,0,151,21,1,84,131,2,57,100,2,214,3,0,150,22,1,214,3,0,150,22,1,0,215,2,0,153,2,0,214,3,0,153,3,174,42,2,126,48,2,214,3,0,150,22,1,106,44,68,86,37,49
2017-06-21T23:59:59Z,156,220,199,139,218,156,195,136,91,71,0,0,0,0,0,0,2,218,1,155,0,218,0,155,0,0,0,0,0,0,0,0,86,44,90,60,51,70,131,89,0,90,74,1,220,0,0,156,20,1,131,89,0,90,74,1,219,1,0,155,21,1,219,1,0,155,21,1,219,1,0,155,21,1,83,135,2,57,102,2,217,3,0,153,22,1,217,3,0,153,22,1,0,218,2,0,155,2,0,218,2,0,155,2,172,46,2,125,51,2,216,3,1,152,22,2,108,44,68,88,38,49
2017-06-22T23:59:59Z,156,221,200,139,221,156,196,136,90,70,0,0,0,0,0,0,2,219,1,155,0,219,0,155,0,0,0,0,0,0,0,0,89,43,89,61,51,71,133,88,0,91,74,2,221,0,0,156,20,2,133,88,0,91,74,2,220,1,0,155,21,2,220,1,0,155,21,2,220,1,0,155,21,2,86,133,2,58,102,3,219,2,0,154,21,2,219,2,0,154,21,2,0,219,2,0,155,3,0,219,2,0,155,3,174,45,2,125,51,3,218,2,1,153,21,2,109,44,68,88,39,49
2017-06-23T23:59:59Z,154,220,199,137,220,154,196,135,90,70,0,0,0,0,0,0,2,218,1,153,1,217,1,153,0,0,0,0,0,0,0,0,89,44,87,61,51,67,134,86,0,91,72,0,220,0,0,154,20,0,132,87,1,90,72,1,219,0,1,154,20,1,219,0,1,154,20,1,219,0,1,154,20,1,84,133,3,57,100,2,217,2,1,152,21,1,217,2,1,152,21,1,0,217,3,0,153,2,0,217,3,0,153,2,172,45,3,124,50,2,217,2,1,152,21,1,108,44,68,87,37,48
2017-06-24T23:59:59Z,152,216,197,137,213,151,193,135,87,69,0,0,0,0,0,0,3,213,2,151,0,214,0,151,0,0,0,0,0,0,0,0,84,44,88,58,50,67,129,87,0,88,71,0,216,0,0,152,19,0,129,87,0,88,71,0,216,0,0,152,19,0,216,0,0,152,19,0,216,0,0,152,19,0,81,133,2,55,100,1,215,1,0,151,20,0,215,1,0,151,20,0,0,214,2,0,151,1,0,214,2,0,151,1,170,44,2,123,49,1,215,1,0,151,20,0,104,45,67,84,39,47
2017-06-25T23:59:59Z,152,217,198,137,217,152,195,135,88,68,0,0,0,0,0,0,2,215,1,151,0,215,0,151,0,0,0,0,0,0,0,0,85,44,88,59,50,66,130,87,0,89,70,0,217,0,0,152,19,0,129,88,0,88,72,0,217,0,0,152,19,0,217,0,0,152,19,0,217,0,0,152,19,0,82,133,2,56,100,1,216,1,0,151,20,0,216,1,0,151,20,0,0,215,2,0,151,1,0,215,2,0,151,1,171,44,2,123,49,1,216,1,0,151,20,0,105,45,67,85,37,47
2017-06-26T23:59:59Z,153,219,200,138,218,152,196,135,95,74,0,0,0,0,0,0,2,217,1,152,0,219,0,153,0,0,0,0,0,0,0,0,85,44,90,58,50,68,130,89,0,88,72,0,219,0,0,153,19,0,130,89,0,88,72,0,218,0,1,153,19,1,218,0,1,153,19,1,218,0,1,153,19,1,82,134,3,56,100,2,216,2,1,151,21,1,217,2,0,151,21,0,0,217,2,0,152,1,0,217,2,0,152,1,172,44,3,124,49,2,216,2,1,151,20,2,104,48,67,83,41,47
2017-06-27T23:59:59Z,153,217,198,138,217,153,195,136,93,72,0,0,0,0,0,0,2,215,1,152,0,215,0,152,0,0,0,0,0,0,0,0,86,44,87,60,50,67,131,86,0,90,70,1,217,0,0,153,19,1,130,87,0,89,71,1,216,1,0,152,20,1,216,1,0,152,20,1,216,1,0,152,20,1,83,132,2,57,99,2,215,2,0,151,21,1,215,2,0,151,21,1,0,215,2,0,152,2,0,215,2,0,152,2,170,45,2,123,50,2,215,2,0,151,21,1,105,47,65,85,39,47
2017-06-28T23:59:59Z,151,215,197,137,215,151,192,134,91,70,0,0,0,0,0,0,3,212,2,150,0,213,0,150,0,0,0,0,0,0,0,0,85,43,87,59,49,67,129,86,0,88,70,1,215,0,0,151,19,1,127,86,2,87,70,2,214,1,0,150,20,1,215,0,0,151,19,1,215,0,0,151,19,1,83,130,2,57,97,2,213,2,0,149,21,1,213,2,0,149,21,1,0,213,2,0,150,2,0,213,2,0,150,2,169,43,3,123,48,3,212,2,1,149,21,2,104,46,65,84,38,47
2017-06-29T23:59:59Z,152,216,197,137,216,152,194,135,87,67,0,0,0,0,0,0,3,213,2,151,0,216,0,152,0,0,0,0,0,0,0,0,85,44,87,60,50,66,129,87,0,89,70,1,216,0,0,152,19,1,128,88,0,88,71,1,216,0,0,152,19,0,214,2,0,152,20,0,216,0,0,152,19,0,81,133,2,56,99,1,211,5,0,149,22,0,212,4,0,149,22,0,0,214,2,0,151,1,0,214,2,0,151,1,170,44,2,123,49,1,212,4,0,150,21,0,105,46,65,86,38,46
2017-06-30T23:59:59Z,152,216,196,136,216,152,193,134,85,67,0,0,0,0,0,0,3,213,2,150,0,214,0,151,0,0,0,0,0,0,0,0,85,42,89,58,49,68,129,87,0,88,71,0,216,0,0,152,19,0,129,87,0,88,71,0,216,0,0,152,19,0,215,1,0,152,20,0,216,0,0,152,19,0,82,131,3,56,98,2,215,1,0,151,20,0,215,1,0,151,20,0,0,213,3,0,150,2,0,213,3,0,150,2,169,44,3,122,49,2,215,1,0,151,20,0,104,46,66,85,39,46
2017-07-01T23:59:59Z,151,216,197,136,215,150,194,134,90,68,0,0,0,0,0,0,2,214,1,150,0,216,0,151,0,0,0,0,0,0,0,0,87,42,87,61,49,65,130,86,0,90,69,0,216,0,0,151,19,0,127,89,0,87,71,0,216,0,0,151,19,0,216,0,0,151,19,0,216,0,0,151,19,0,79,135,2,55,99,1,213,3,0,148,22,0,213,3,0,148,22,0,0,214,2,0,150,1,0,214,2,0,150,1,168,46,2,121,50,1,214,2,0,149,21,0,103,45,68,85,37,47
2017-07-02T23:59:59Z,150,216,197,135,216,150,194,133,88,67,0,0,0,0,0,0,3,213,2,149,0,216,0,150,0,0,0,0,0,0,0,0,87,42,87,60,48,64,130,86,0,89,68,0,216,0,0,150,18,0,130,86,0,89,69,0,216,0,0,150,18,0,216,0,0,150,18,0,216,0,0,150,18,0,83,131,2,57,97,1,215,1,0,149,19,0,215,1,0,149,19,0,0,214,2,0,149,1,0,214,2,0,149,1,170,44,2,121,48,1,215,1,0,149,19,0,105,44,67,84,36,47
2017-07-03T23:59:59Z,155,224,202,138,223,154,198,135,94,71,0,0,0,0,0,0,6,218,4,152,0,222,0,154,0,0,0,0,0,0,0,0,90,42,92,61,48,68,136,88,0,92,70,0,224,0,0,155,18,0,136,88,0,92,70,0,224,0,0,155,18,0,223,1,0,155,19,0,224,0,0,155,18,0,86,133,5,58,98,3,222,2,0,153,20,0,222,2,0,153,20,0,0,219,5,0,152,3,0,219,5,0,152,3,175,44,5,124,48,3,223,1,0,154,19,0,111,46,67,87,39,47
2017-07-04T23:59:59Z,155,223,201,138,223,155,197,136,88,68,0,0,0,0,0,0,4,219,3,153,0,223,0,155,0,0,0,0,0,0,0,0,90,42,91,61,49,68,134,89,0,91,72,1,223,0,0,155,19,1,134,89,0,91,72,1,222,1,0,154,20,1,222,1,0,154,20,1,222,1,0,154,20,1,85,135,3,57,100,3,220,3,0,152,21,1,220,3,0,152,21,1,0,220,3,0,153,3,0,220,3,0,153,3,174,46,3,123,50,3,221,2,0,153,20,1,110,46,67,88,38,47
2017-07-05T23:59:59Z,153,221,200,137,221,153,197,135,88,68,0,0,0,0,0,0,2,219,1,152,0,221,0,153,0,0,0,0,0,0,0,0,88,45,88,60,51,66,134,87,0,91,71,0,221,0,0,153,19,0,134,87,0,91,71,0,220,1,0,152,20,0,219,2,0,152,21,0,220,1,0,152,20,0,84,135,2,56,100,1,218,3,0,150,21,0,218,3,0,150,21,0,0,219,2,0,152,1,0,219,2,0,152,1,171,48,2,121,52,1,219,2,0,151,20,0,110,46,65,87,38,46
2017-07-06T23:59:59Z,153,218,195,136,218,153,189,132,89,69,0,0,0,0,0,0,4,214,2,151,0,214,0,151,0,0,0,0,0,0,0,0,85,45,88,60,51,67,132,86,0,91,70,1,218,0,0,153,19,1,132,86,0,91,70,1,218,0,0,153,19,0,218,0,0,153,19,0,218,0,0,153,19,0,81,133,4,56,99,2,215,3,0,150,21,0,215,3,0,150,21,0,0,214,4,0,151,2,0,214,4,0,151,2,167,47,4,121,51,3,216,2,0,151,20,0,109,44,65,88,37,46
2017-07-07T23:59:59Z,153,219,196,136,219,153,193,134,87,68,0,0,0,0,0,0,5,214,3,151,0,217,0,152,0,0,0,0,0,0,0,0,87,45,87,61,52,65,134,85,0,92,69,0,219,0,0,153,20,0,132,87,0,90,71,0,219,0,0,153,20,0,219,0,0,153,20,0,219,0,0,153,20,0,81,134,4,55,100,2,217,2,0,151,21,0,217,2,0,151,21,0,0,215,4,0,151,2,0,215,4,0,151,2,168,47,4,121,52,2,217,2,0,151,21,0,110,44,65,89,36,46
2017-07-08T23:59:59Z,152,220,196,135,220,152,193,133,90,68,0,0,0,0,0,0,4,216,2,150,0,220,0,152,0,0,0,0,0,0,0,0,88,44,88,61,51,66,132,88,0,91,70,0,220,0,0,152,19,0,132,88,0,91,71,0,220,0,0,152,19,0,220,0,0,152,19,0,220,0,0,152,19,0,82,134,4,56,99,2,218,2,0,150,20,0,218,2,0,150,20,0,0,216,4,0,150,2,0,216,4,0,150,2,170,46,4,121,51,2,218,2,0,150,20,0,110,44,66,87,36,47
2017-07-09T23:59:59Z,153,224,202,137,224,153,199,135,89,68,0,0,0,0,0,0,3,221,2,152,0,222,0,152,0,0,0,0,0,0,0,0,91,44,89,62,51,66,134,90,0,91,71,0,224,0,0,153,19,0,133,91,0,90,72,0,224,0,0,153,19,0,224,0,0,153,19,0,224,0,0,153,19,0,83,139,2,55,101,1,222,2,0,151,20,0,222,2,0,151,20,0,0,222,2,0,152,1,0,222,2,0,152,1,174,48,2,122,52,1,222,2,0,151,20,0,112,44,68,87,36,48
2017-07-10T23:59:59Z,154,222,201,138,222,154,198,136,86,68,0,0,0,0,0,0,3,219,2,153,0,222,0,154,0,0,0,0,0,0,0,0,92,43,87,63,50,66,134,88,0,91,71,0,222,0,0,154,19,0,133,89,0,90,72,0,222,0,0,154,19,0,222,0,0,154,19,0,222,0,0,154,19,0,84,136,2,56,101,1,219,3,0,151,21,0,219,3,0,151,21,0,0,220,2,0,153,1,0,220,2,0,153,1,172,48,2,122,52,1,218,4,0,151,21,0,111,44,67,88,36,48
2017-07-11T23:59:59Z,155,223,202,139,223,155,198,137,94,73,0,0,0,0,0,0,2,221,1,154,0,223,0,155,0,0,0,0,0,0,0,0,91,43,89,62,50,67,134,89,0,91,72,0,223,0,0,155,19,0,132,91,0,89,74,0,222,1,0,154,20,0,222,1,0,154,20,0,222,1,0,154,20,0,83,138,2,55,103,1,220,3,0,152,21,0,220,3,0,152,21,0,0,221,2,0,154,1,0,221,2,0,154,1,173,48,2,123,52,1,218,5,0,151,22,0,110,46,67,87,39,48
2017-07-12T23:59:59Z,154,222,201,138,220,153,198,136,91,71,0,0,0,0,0,0,2,220,1,153,0,220,0,153,0,0,0,0,0,0,0,0,93,41,88,63,50,67,133,89,0,90,72,0,222,0,0,154,20,0,132,90,0,89,73,0,222,0,0,154,20,0,222,0,0,154,20,0,222,0,0,154,20,0,85,135,2,56,101,1,219,3,0,151,22,0,219,3,0,151,22,0,0,220,2,0,153,1,0,220,2,0,153,1,174,46,2,123,52,1,219,3,0,151,22,0,110,44,68,88,36,49
2017-07-13T23:59:59Z,159,229,206,142,229,159,203,140,92,73,0,0,0,0,0,0,4,225,2,157,0,225,0,157,0,0,0,0,0,0,0,0,88,45,96,60,53,72,134,95,0,90,77,0,229,0,0,159,21,0,135,94,0,91,76,0,228,1,0,158,22,0,228,1,0,158,22,0,228,1,0,158,22,0,84,141,4,56,105,2,226,3,0,156,23,0,226,3,0,156,23,0,0,225,4,0,157,2,0,225,4,0,157,2,178,47,4,127,53,2,226,3,0,156,23,0,113,46,70,90,38,50
2017-07-14T23:59:59Z,155,224,201,138,223,154,199,137,91,72,0,0,0,0,0,0,4,220,2,153,0,222,0,154,0,0,0,0,0,0,0,0,90,40,94,61,51,70,132,92,0,89,74,0,224,0,0,155,22,0,131,93,0,88,75,0,224,0,0,155,22,0,224,0,0,155,22,0,224,0,0,155,22,0,83,137,4,55,102,2,222,2,0,153,23,0,222,2,0,153,23,0,0,220,4,0,153,2,0,220,4,0,153,2,176,44,4,125,52,2,222,2,0,153,23,0,109,45,70,87,38,50
2017-07-15T23:59:59Z,157,229,209,142,228,156,206,140,95,74,0,0,0,0,0,0,2,227,1,156,0,227,0,156,0,0,0,0,0,0,0,0,94,44,91,63,52,69,137,92,0,91,74,0,229,0,0,157,21,0,136,93,0,90,75,0,229,0,0,157,21,0,229,0,0,157,21,0,229,0,0,157,21,0,88,139,2,57,103,1,227,2,0,155,22,0,227,2,0,155,22,0,0,227,2,0,156,1,0,227,2,0,156,1,181,46,2,127,52,1,227,2,0,155,22,0,115,46,68,90,37,49
2017-07-16T23:59:59Z,157,228,208,142,228,157,205,140,90,70,0,0,0,0,0,0,2,226,1,156,0,226,1,156,0,0,0,0,0,0,0,0,93,46,89,63,52,68,138,90,0,92,74,0,228,0,0,157,21,0,137,91,0,91,75,0,228,0,0,157,21,0,227,0,0,156,21,0,227,0,0,156,21,0,90,136,2,59,102,1,226,2,0,155,22,0,226,2,0,155,22,0,0,226,2,0,156,1,0,226,2,0,156,1,181,45,2,128,51,1,226,2,0,155,22,0,114,48,66,91,38,48
2017-07-17T23:59:59Z,158,228,211,145,228,158,207,142,94,73,0,0,0,0,0,0,0,228,0,158,0,226,0,157,0,0,0,0,0,0,0,0,92,45,91,62,53,70,133,95,0,89,77,0,228,0,0,158,21,0,133,95,0,89,77,0,227,1,0,157,22,0,226,1,0,156,22,0,227,1,0,157,22,0,88,140,0,58,104,0,224,4,0,154,24,0,224,4,0,154,24,0,0,228,0,0,158,0,0,228,0,0,158,0,182,46,0,129,52,0,225,2,1,155,22,1,110,50,68,88,40,49
2017-07-18T23:59:59Z,156,227,210,143,227,156,207,141,89,70,0,0,0,0,0,0,1,226,1,156,0,227,0,156,0,0,0,0,0,0,0,0,94,44,89,63,52,67,136,91,0,91,73,0,227,0,0,156,21,0,135,92,0,90,74,0,227,0,0,156,21,0,226,0,0,155,21,0,226,0,1,156,21,1,90,137,0,59,101,0,225,2,0,154,22,0,225,2,0,154,22,0,0,227,0,0,156,0,0,227,0,0,156,0,182,45,0,128,51,0,225,2,0,154,22,0,111,49,67,88,39,48
2017-07-19T23:59:59Z,155,223,202,140,222,154,199,138,90,70,0,0,0,0,0,0,4,219,2,153,0,223,0,155,0,0,0,0,0,0,0,0,91,43,89,62,49,68,135,88,0,90,72,0,223,0,0,155,19,0,135,88,0,90,72,0,222,1,0,154,20,0,221,1,0,153,20,0,222,1,0,154,20,0,87,132,4,58,99,2,220,3,0,152,21,0,220,3,0,152,21,0,0,219,4,0,153,2,0,219,4,0,153,2,174,45,4,124,49,2,220,3,0,152,21,0,111,50,62,87,40,45
2017-07-20T23:59:59Z,157,227,206,142,227,157,203,140,87,69,0,0,0,0,0,0,4,223,2,155,0,225,0,156,0,0,0,0,0,0,0,0,94,43,90,63,49,68,139,88,0,92,72,0,227,0,0,157,19,0,139,88,0,92,73,0,227,0,0,157,19,0,226,0,0,156,19,0,227,0,0,157,19,0,92,131,4,61,99,2,224,3,0,154,21,0,224,3,0,154,21,0,0,223,4,0,155,2,0,223,4,0,155,2,178,45,4,126,49,2,222,5,0,153,22,0,114,51,62,88,41,45
2017-07-21T23:59:59Z,155,223,204,141,223,155,200,138,90,71,0,0,0,0,0,0,0,223,0,155,0,223,0,155,0,0,0,0,0,0,0,0,92,45,86,62,49,67,134,89,0,89,72,0,223,0,0,155,18,0,133,90,0,88,73,0,221,2,0,153,20,0,220,2,0,152,20,0,221,2,0,153,20,0,89,134,0,58,100,0,219,4,0,151,21,0,219,4,0,151,21,0,0,223,0,0,155,0,0,223,0,0,155,0,177,46,0,125,49,0,219,4,0,151,21,0,108,53,62,84,43,45
2017-07-22T23:59:59Z,155,223,201,139,222,155,198,137,91,72,0,0,0,0,0,0,3,220,2,154,0,221,0,154,0,0,0,0,0,0,0,0,89,46,88,60,50,67,135,88,0,90,71,0,223,0,0,155,18,0,135,88,0,90,71,0,223,0,0,155,18,0,222,0,0,154,18,0,223,0,0,155,18,0,88,132,3,58,99,2,221,1,1,153,19,1,221,1,1,153,19,1,0,220,3,0,154,2,0,220,3,0,154,2,176,44,3,125,48,2,221,1,1,153,19,1,108,53,62,84,43,45
2017-07-23T23:59:59Z,159,228,205,142,227,159,202,140,93,73,0,0,0,0,0,0,2,226,1,158,0,226,0,158,0,0,0,0,0,0,0,0,93,45,90,63,50,69,137,91,0,92,73,0,228,0,0,159,18,0,136,92,0,91,74,0,228,0,0,159,18,0,227,0,0,158,18,0,228,0,0,159,18,0,90,135,3,59,102,2,226,1,1,157,19,1,226,1,1,157,19,1,0,225,3,0,158,2,0,225,3,0,158,2,182,43,3,129,48,2,226,1,1,157,19,1,110,54,64,86,44,46
2017-07-24T23:59:59Z,161,233,210,144,233,161,206,141,97,74,0,0,0,0,0,0,2,231,1,160,0,231,0,160,0,0,0,0,0,0,0,0,95,46,92,64,50,70,140,93,0,93,75,0,233,0,0,161,19,0,139,94,0,92,76,0,232,1,0,160,20,0,231,1,0,160,20,0,232,1,0,160,20,0,91,140,2,59,105,1,222,11,0,154,28,0,230,3,0,158,21,0,0,231,2,0,160,1,0,231,2,0,160,1,174,57,2,121,59,1,228,5,0,157,22,0,112,54,67,87,45,48
2017-07-25T23:59:59Z,158,226,203,141,225,157,200,139,97,75,0,0,0,0,0,0,4,222,2,157,0,226,0,158,0,0,0,0,0,0,0,0,88,47,91,61,52,69,135,91,0,91,75,0,226,0,0,158,20,0,136,90,0,92,74,0,226,0,0,158,20,0,225,1,0,157,21,0,225,1,0,157,21,0,87,136,3,59,103,1,223,3,0,155,22,0,223,3,0,155,22,0,0,223,3,0,157,1,0,223,3,0,157,1,177,46,3,127,51,1,224,2,0,156,21,0,110,51,65,87,42,47
2017-07-26T23:59:59Z,161,228,204,143,228,161,200,140,90,72,0,0,0,0,0,0,4,224,2,159,0,228,0,161,0,0,0,0,0,0,0,0,91,45,92,62,51,71,138,90,0,93,76,0,228,0,0,161,20,0,137,91,0,92,77,0,226,2,0,159,22,0,226,2,0,159,22,0,226,2,0,159,22,0,87,137,4,58,106,2,224,4,0,157,23,0,224,4,0,157,23,0,0,224,4,0,159,2,0,224,4,0,159,2,175,49,4,126,54,2,224,4,0,157,23,0,110,54,64,87,45,47
2017-07-27T23:59:59Z,161,228,204,143,228,161,201,141,87,69,0,0,0,0,0,0,4,222,2,158,0,224,0,159,0,0,0,0,0,0,0,0,92,45,91,64,51,69,138,90,0,94,75,0,228,0,0,161,20,0,137,91,0,93,77,0,227,1,0,160,21,0,227,1,0,160,21,0,227,1,0,160,21,0,87,137,4,59,106,2,225,3,0,158,22,0,225,3,0,158,22,0,0,224,4,0,159,2,0,224,4,0,159,2,175,47,4,127,52,2,223,3,0,157,22,0,110,52,66,88,42,48
2017-07-28T23:59:59Z,160,225,203,143,225,160,199,140,90,72,0,0,0,0,0,0,3,222,2,159,0,223,0,159,0,0,0,0,0,0,0,0,88,47,90,61,52,70,135,90,0,92,76,0,225,0,0,160,20,0,135,90,0,92,76,0,224,1,0,159,21,0,224,1,0,159,21,0,224,1,0,159,21,0,87,136,2,59,105,1,223,2,0,158,21,0,223,2,0,158,21,0,0,223,2,0,159,1,0,223,2,0,159,1,175,48,2,127,53,1,220,5,0,156,23,0,107,54,64,86,44,47
2017-07-29T23:59:59Z,161,227,206,145,227,161,203,143,92,73,0,0,0,0,0,0,2,225,1,160,0,227,0,161,0,0,0,0,0,0,0,0,91,45,91,63,52,71,135,92,0,93,77,1,227,0,0,161,20,1,135,92,0,93,77,1,225,2,0,159,22,1,225,2,0,159,22,1,225,2,0,159,22,1,89,136,2,61,104,2,222,5,0,156,24,1,222,5,0,156,24,1,0,225,2,0,160,2,0,225,2,0,160,2,179,46,2,130,52,1,223,4,0,157,23,0,109,52,66,88,43,48
2017-07-30T23:59:59Z,158,225,204,142,225,158,201,140,93,74,0,0,0,0,0,0,3,222,2,157,0,221,0,156,0,0,0,0,0,0,0,0,90,45,90,62,51,69,135,90,0,92,75,0,225,0,0,158,20,0,134,91,0,91,76,0,225,0,0,158,20,0,225,0,0,158,20,0,225,0,0,158,20,0,88,135,2,59,103,1,223,2,0,156,21,0,223,2,0,156,21,0,0,223,2,0,157,1,0,223,2,0,157,1,179,44,2,129,50,1,223,2,0,156,21,0,108,51,66,86,42,48
2017-07-31T23:59:59Z,160,229,208,144,229,160,202,141,93,74,0,0,0,0,0,0,2,227,1,159,0,227,0,159,0,0,0,0,0,0,0,0,96,41,92,65,49,71,137,92,0,92,77,0,229,0,0,160,21,0,137,92,0,92,77,0,228,1,0,159,22,0,228,1,0,159,22,0,228,1,0,159,22,0,93,134,2,62,102,1,227,2,0,158,22,0,227,2,0,158,22,0,0,227,2,0,159,1,0,227,2,0,159,1,184,43,2,132,50,1,227,2,0,158,22,0,111,51,67,87,43,49
2017-08-01T23:59:59Z,160,231,208,143,229,160,203,141,94,73,0,0,0,0,0,0,4,227,2,158,0,231,0,160,0,0,0,0,0,0,0,0,96,40,95,65,49,72,137,94,0,92,78,0,231,0,0,160,21,0,136,95,0,91,79,0,231,0,0,160,21,0,231,0,0,160,21,0,231,0,0,160,21,0,92,135,4,61,102,2,228,3,0,157,23,0,228,3,0,157,23,0,0,227,4,0,158,2,0,227,4,0,158,2,184,43,4,131,51,2,229,2,0,158,22,0,112,52,67,88,44,49
2017-08-02T23:59:59Z,160,231,208,143,231,160,204,141,88,70,0,0,0,0,0,0,5,226,3,158,0,227,0,158,0,0,0,0,0,0,0,0,94,44,93,63,51,71,140,91,0,93,76,0,231,0,0,160,21,0,140,91,0,93,76,0,231,0,0,160,21,0,231,0,0,160,21,0,231,0,0,160,21,0,91,136,4,60,103,2,230,1,0,159,21,0,230,1,0,159,21,0,0,227,4,0,158,2,0,227,4,0,158,2,182,45,4,130,51,2,230,1,0,159,21,0,113,53,65,88,43,47
2017-08-03T23:59:59Z,157,225,207,142,225,157,204,140,90,71,0,0,0,0,0,0,2,223,1,156,0,225,0,157,0,0,0,0,0,0,0,0,93,43,89,63,50,68,136,89,0,91,74,0,225,0,0,157,21,0,136,89,0,91,74,0,225,0,0,157,21,0,225,0,0,157,21,0,225,0,0,157,21,0,92,131,2,61,100,1,224,1,0,156,21,0,224,1,0,156,21,0,0,223,2,0,156,1,0,223,2,0,156,1,181,42,2,129,49,1,224,1,0,156,21,0,108,53,64,85,43,46
2017-08-04T23:59:59Z,159,227,211,145,227,159,208,143,94,74,0,0,0,0,0,0,2,225,1,158,0,225,0,158,0,0,0,0,0,0,0,0,97,43,87,67,50,68,136,91,0,92,77,0,227,0,0,159,21,0,135,92,0,91,77,0,226,1,0,158,22,0,226,1,0,158,22,0,226,1,0,158,22,0,94,133,0,63,102,0,224,3,0,156,23,0,224,3,0,156,23,0,0,227,0,0,159,0,0,227,0,0,159,0,183,44,0,130,51,0,225,2,0,157,22,0,109,54,64,87,45,46
2017-08-05T23:59:59Z,157,224,207,142,222,156,203,140,92,73,0,0,0,0,0,0,2,222,1,156,0,224,0,157,0,0,0,0,0,0,0,0,94,44,86,64,51,66,135,89,0,91,74,0,224,0,0,157,21,0,133,90,0,89,75,0,223,0,0,156,21,0,223,0,0,156,21,0,223,0,0,156,21,0,93,131,0,61,101,0,223,1,0,156,21,0,221,1,1,155,21,1,0,223,1,0,157,1,0,223,1,0,157,1,183,41,0,130,49,0,223,1,0,156,21,0,107,54,63,85,44,45
2017-08-06T23:59:58Z,161,231,212,145,231,161,209,143,89,70,0,0,0,0,0,0,4,227,2,159,0,231,0,161,0,0,0,0,0,0,0,0,98,45,88,66,52,67,142,89,0,95,74,0,231,0,0,161,21,0,140,90,0,93,75,0,230,0,0,160,21,0,230,0,0,160,21,0,230,0,0,160,21,0,95,134,2,62,103,1,229,2,0,159,22,0,228,2,0,158,22,0,0,229,2,0,160,1,0,229,2,0,160,1,185,44,2,131,51,1,229,2,0,159,22,0,115,53,63,90,43,45
2017-08-07T23:59:59Z,162,232,213,146,231,161,210,144,90,72,0,0,0,0,0,0,4,228,2,160,0,228,0,160,0,0,0,0,0,0,0,0,96,47,89,65,53,68,142,90,0,95,75,0,232,0,0,162,21,0,141,90,0,94,75,0,231,0,0,161,21,0,231,0,0,161,21,0,231,0,0,161,21,0,96,134,2,63,103,1,229,3,0,159,23,0,229,3,0,159,23,0,0,230,2,0,161,1,0,230,2,0,161,1,185,45,2,131,52,1,229,3,0,159,23,0,115,54,63,91,44,45
2017-08-08T23:59:59Z,161,232,211,144,232,161,208,142,90,71,0,0,0,0,0,0,6,226,3,158,0,232,0,161,0,0,0,0,0,0,0,0,96,48,88,65,53,67,145,87,0,96,73,0,232,0,0,161,21,0,144,87,0,95,73,0,231,0,0,160,21,0,231,0,0,160,21,0,231,0,0,160,21,0,96,132,4,63,101,2,230,2,0,159,22,0,230,2,0,159,22,0,0,228,4,0,159,2,0,228,4,0,159,2,183,45,4,130,51,2,230,2,0,159,22,0,118,53,61,91,43,44
2017-08-09T23:59:59Z,163,233,211,146,233,163,207,143,92,73,0,0,0,0,0,0,6,226,3,160,0,233,0,163,0,0,0,0,0,0,0,0,98,44,90,66,52,69,143,90,0,95,75,0,233,0,0,163,22,0,142,90,0,94,75,0,232,0,0,162,22,0,231,1,0,161,23,0,232,0,0,162,22,0,96,133,4,63,102,2,230,3,0,160,24,0,230,3,0,160,24,0,0,229,4,0,161,2,0,229,4,0,161,2,186,43,4,133,51,2,229,4,0,159,25,0,116,55,62,91,45,45
2017-08-10T23:59:59Z,163,236,216,147,236,163,211,143,93,73,0,0,0,0,0,0,4,231,2,161,0,236,0,163,0,0,0,0,0,0,0,0,95,49,91,63,54,69,144,92,0,95,75,0,236,0,0,163,21,0,143,92,0,94,75,0,235,0,0,162,21,0,235,0,0,162,21,0,235,0,0,162,21,0,96,138,2,62,104,1,234,2,0,161,22,0,234,2,0,161,22,0,0,234,2,0,162,1,0,234,2,0,162,1,187,47,2,131,53,1,231,5,0,160,24,0,116,57,63,90,46,45
2017-08-11T23:59:59Z,161,231,211,145,231,161,208,142,94,74,0,0,0,0,0,0,4,226,2,159,0,228,0,159,0,0,0,0,0,0,0,0,94,47,89,63,53,68,141,90,0,94,74,0,231,0,0,161,21,0,140,90,0,93,74,0,230,0,0,160,21,0,230,0,0,160,21,0,230,0,0,160,21,0,95,134,2,62,102,1,229,2,0,159,22,0,229,2,0,159,22,0,0,229,2,0,160,1,0,229,2,0,160,1,185,44,2,131,51,1,227,3,1,158,23,1,111,57,63,87,48,45
2017-08-12T23:59:59Z,160,230,210,144,229,159,208,142,89,71,0,0,0,0,0,0,4,225,2,158,0,228,0,159,0,0,0,0,0,0,0,0,93,48,88,62,53,68,141,89,0,93,74,0,230,0,0,160,21,0,139,90,0,91,75,0,229,0,0,159,21,0,229,0,0,159,21,0,229,0,0,159,21,0,93,135,2,60,103,1,227,3,0,157,23,0,227,3,0,157,23,0,0,228,2,0,159,1,0,228,2,0,159,1,183,45,2,130,51,1,228,2,0,158,22,0,113,56,61,88,46,44
2017-08-13T23:59:59Z,165,237,214,147,236,164,212,145,93,74,0,0,0,0,0,0,6,230,3,162,0,235,0,164,0,0,0,0,0,0,0,0,96,48,92,64,54,71,145,92,0,96,77,1,237,0,0,165,22,1,145,91,0,96,76,1,235,1,0,163,23,1,235,1,0,163,23,1,235,1,0,163,23,1,95,138,4,62,105,3,234,3,0,162,24,1,234,3,0,162,24,1,0,233,4,0,163,3,0,233,4,0,163,3,184,49,4,130,55,3,235,2,0,163,23,1,117,57,63,92,46,45
2017-08-14T23:59:59Z,167,239,213,148,239,167,210,145,92,74,0,0,0,0,0,0,7,231,4,164,0,239,0,167,0,0,0,0,0,0,0,0,99,49,90,66,56,70,151,88,0,101,75,1,239,0,0,167,22,1,150,88,0,100,75,1,238,0,0,166,22,1,238,0,0,166,22,1,238,0,0,166,22,1,99,136,4,65,105,3,236,3,0,164,24,1,235,3,1,163,24,2,0,235,4,0,165,3,0,235,4,0,165,3,187,48,4,134,55,3,237,2,0,165,23,1,121,56,62,94,46,45
2017-08-15T23:59:59Z,168,241,215,149,240,168,212,146,95,76,0,0,0,0,0,0,7,233,4,165,0,241,0,168,0,0,0,0,0,0,0,0,98,51,90,65,58,71,151,90,0,101,77,1,241,0,0,168,23,1,149,91,0,99,78,1,239,1,0,166,24,1,239,1,0,166,24,1,239,1,0,166,24,1,96,141,4,62,109,3,238,3,0,165,25,1,237,3,1,164,25,2,0,237,4,0,166,3,0,237,4,0,166,3,187,50,4,133,57,3,238,3,0,165,24,1,121,58,62,94,47,45
2017-08-16T23:59:59Z,165,234,213,148,234,165,210,146,92,75,0,0,0,0,0,0,2,232,1,164,0,234,0,165,0,0,0,0,0,0,0,0,100,51,83,67,59,68,149,85,0,101,74,1,234,0,0,165,24,1,146,87,0,98,76,1,233,0,0,164,24,1,233,0,0,164,24,1,233,0,0,164,24,1,98,136,0,64,106,1,232,2,0,163,25,1,232,2,0,163,25,1,0,234,0,0,165,1,0,234,0,0,165,1,184,50,0,132,58,1,232,2,0,163,24,1,118,55,61,94,44,45
2017-08-17T23:59:59Z,165,237,214,147,236,164,211,145,91,74,0,0,0,0,0,0,5,232,3,163,0,237,0,165,0,0,0,0,0,0,0,0,100,52,85,66,58,68,152,85,0,101,73,1,237,0,0,165,22,1,150,86,0,99,74,1,236,0,0,164,22,1,236,0,0,164,22,1,236,0,0,164,22,1,98,137,2,63,106,2,235,2,0,163,23,1,235,2,0,163,23,1,0,235,2,0,164,2,0,235,2,0,164,2,184,51,2,131,57,2,235,2,0,163,23,1,122,54,61,93,43,45